Regional Weather Roundup
Issued by NWS Jackson, KY

Home | Current Version | Previous Version | Graphics & Text | Print | Product List | Glossary On
Versions: 1 2 3 4 5 6 7 8 9 10 11 12 13 14 15 16 17 18 19 20 21 22 23 24 25 26 27
000
ASUS43 KJKL 201710
RWRJKL

EAST KENTUCKY HOURLY WEATHER ROUNDUP
NATIONAL WEATHER SERVICE JACKSON KY
100 PM EDT FRI OCT 20 2017

NOTE: "FAIR" INDICATES FEW OR NO CLOUDS BELOW 12,000 FEET WITH
NO SIGNIFICANT WEATHER AND/OR OBSTRUCTIONS TO VISIBILITY.

* THESE REPORTS ARE NOT UNDER NWS QUALITY CONTROL AND MAY NOT
  REPORT WEATHER SUCH AS PRECIPITATION AND FOG.

KYZ079-080-083-085-087-088-110-112-115-119-120-201800
...EASTERN KENTUCKY...

CITY           SKY/WX    TMP DP  RH WIND       PRES   REMARKS
JACKSON        SUNNY     69  51  52 MISG      30.32F
LONDON         SUNNY     70  49  47 NE5       30.30F
SOMERSET*      SUNNY     70  50  49 CALM      30.31F
MONTICELLO*    SUNNY     71  51  49 NW8       30.32F
WILLIAMSBURG*  SUNNY     68  50  52 CALM      30.30F
MIDDLESBORO*   SUNNY     65  51  60 CALM      30.32F
HARLAN APT*    MOSUNNY   68  46  45 CALM      30.31F
PIKE CO APT*     N/A     67  51  55 CALM      30.33F
BIG SANDY APT* SUNNY     69  52  54 CALM      30.32F
MOREHEAD APT*  SUNNY     70  52  52 CALM      30.33F
$$

KYZ035-036-041-042-044-050-067-078-099-201800
...CENTRAL KENTUCKY...

CITY           SKY/WX    TMP DP  RH WIND       PRES   REMARKS
MT STERLING*   SUNNY     70  52  52 S5        30.32F
FLEMING/MASON* SUNNY     69  54  57 E3        30.31F
DANVILLE*      SUNNY     70  52  52 E3        30.30F
LEXINGTON      SUNNY     72  51  47 S5        30.30F
FRANKFORT      SUNNY     72  50  45 VRB6      30.28F
LOUISVILLE     MOSUNNY   72  52  49 CALM      30.27F
LEBANON*         N/A     72  48  43 CALM      30.29F
GLASGOW*       SUNNY     74  47  37 SW3       30.28F
BOWLING GREEN  SUNNY     73  50  44 CALM      30.29F
$$

KYZ091>093-OHZ055-061-077-WVZ005-015-034-035-042-201800
...SOUTHERN OHIO/WEST VIRGINIA...

CITY           SKY/WX    TMP DP  RH WIND       PRES   REMARKS
COVINGTON      MOSUNNY   71  56  58 SE7       30.28F
COLUMBUS       MOSUNNY   68  39  34 S3        30.30F
DAYTON         MOSUNNY   70  56  61 S5        30.29F
WILMINGTON     SUNNY     72  54  53 CALM      30.29F
HUNTINGTON     SUNNY     71  52  50 CALM      30.31F
CHARLESTON     SUNNY     69  50  50 VRB3      30.31F
PINEVILLE*     SUNNY     69  48  48 MISG      30.38F
BECKLEY        SUNNY     67  49  52 VRB5      30.34F
BLUEFIELD      SUNNY     65  45  48 CALM      30.36F
LOGAN CO APT*    N/A     68  50  52 CALM      30.33F
$$

VAZ002-007-008-TNZ017-027-036-066-071-201800
...SOUTHWEST VIRGINIA/EAST TENNESSEE...

CITY           SKY/WX    TMP DP  RH WIND       PRES   REMARKS
WISE*          SUNNY     68  45  42 N6        30.36F
JONESVILLE*      N/A     70  46  43 CALM      30.33F HAZE
ABINGDON*      SUNNY     70  46  41 CALM      30.33F
BRISTOL        SUNNY     68  47  46 CALM      30.33F
MORRISTOWN*    SUNNY     70  48  46 CALM      30.30F
SEVIERVILLE*   SUNNY     70  48  46 CALM      30.30F
KNOXVILLE      MOSUNNY   68  51  54 N6        30.29F
LAFOLLETTE*    SUNNY     68  50  52 CALM      30.34F
OAK RIDGE      SUNNY     68  53  58 VRB3      30.32F
CROSSVILLE     SUNNY     71  47  42 NE6       30.31F
NASHVILLE      PTSUNNY   72  47  40 CALM      30.29F
$$

...KEY TO REMARKS...
VSB - VISIBILITY IN MILES
WCI - WIND CHILL INDEX
HX  - HEAT INDEX

$$




USA.gov is the U.S. government's official web portal to all federal, state and local government web resources and services.